#timestamp,LO_Frequency,Hit,StdDev 
1509433215.9,286047001.1,N
1509433235.7,286047001.2,N
1509433255.6,286047000.3,N
1509433275.4,286046998.6,N
1509433295.2,286046998.9,N
1509433315.1,286046999.3,N
1509433316.0,286046999.3,N
1509433335.8,286046997.2,N
1509433355.7,286046998.5,N
1509433375.5,286046998.8,N
1509433395.3,286046999.2,N
1509433415.2,286046999.3,N
1509433435.0,286046999.3,N
1509433466.0,286046999.5,E
1509433475.9,286047000.9,N
1509433495.7,286047002.4,P
1509433515.6,286047002.4,P
1509433535.4,286046999.9,N
1509433555.2,286047001.2,N
1509433575.1,286047002.7,N
1509433576.0,286047002.7,N
1509433595.8,286047000.2,N
1509433615.6,286047000.8,N
1509433635.5,286047000.6,N
1509433655.3,286047000.3,N
1509433675.2,286047000.0,N
1509433695.9,286047000.4,N
1509433715.7,286047000.8,N
1509433735.6,286046998.8,N
1509433755.4,286047001.1,N
1509433775.2,286046998.3,N
1509433795.1,286047000.7,N
1509433796.0,286047000.7,N
1509433815.8,286046999.6,N
1509433835.7,286046998.7,N
1509433855.5,286046999.4,N
1509433875.3,286046998.3,N
1509433895.2,286046997.4,N
1509433915.0,286046997.6,N
1509433915.9,286046997.6,N
1509433935.7,286046996.8,N
1509433955.6,286046997.3,N
1509433975.4,286046997.3,N
1509433995.3,286046997.3,N
1509434015.1,286046998.0,N
1509434016.0,286046998.0,N
1509434035.8,286046997.4,N
1509434055.7,286046997.4,N
1509434075.5,286046996.5,N
1509434095.3,286046998.4,N
1509434115.2,286046998.4,N
1509434135.0,286046998.4,N
1509434135.9,286046998.4,N
1509434155.8,286046998.9,N
1509434175.6,286046998.4,N
1509434195.4,286046998.4,N
1509434215.3,286046999.4,N
1509434235.1,286047001.1,N
1509434285.9,286047001.2,E
1509434295.8,286046998.3,N
1509434315.6,286046997.3,P
1509434335.5,286046996.5,P
1509434355.3,286046996.5,Y
1509434375.2,286047001.8,P
1509434395.9,286047002.4,N
1509434415.7,286047002.8,N
1509434435.6,286046998.1,N
1509434455.4,286047001.2,N
1509434475.3,286046996.8,N
1509434495.1,286046999.2,N
1509434496.0,286046999.2,N
1509434515.8,286046998.7,N
1509434535.7,286046999.1,N
1509434555.5,286046999.9,N
1509434575.3,286046998.3,N
1509434625.2,286046999.3,E
1509434635.1,286047001.1,N
1509434655.9,286047000.5,P
1509434675.7,286047001.1,P
1509434695.5,286046998.2,Y
1509434715.4,286046999.5,P
1509434735.2,286047000.5,N
1509434755.1,286047000.2,N
1509434756.0,286047000.2,N
1509434775.8,286046998.6,Y
1509434795.6,286046998.6,P
1509434815.5,286046999.2,N
1509434835.3,286046998.3,N
1509434855.1,286046997.2,Y
1509434875.9,286047000.8,P
1509434895.7,286047000.6,N
1509434915.6,286047002.3,N
1509434935.4,286047002.4,N
1509434955.2,286047001.6,N
1509434975.1,286047002.7,N
1509434976.0,286047002.7,N
1509434995.8,286047000.5,N
1509435015.7,286046998.5,N
1509435035.5,286046999.2,N
1509435055.3,286046998.8,N
1509435075.2,286046998.1,N
1509435095.9,286047002.4,N
1509435115.7,286046998.6,N
1509435135.6,286047000.0,N
1509435155.4,286047000.1,N
1509435175.3,286047000.6,N
1509435195.1,286047002.3,N
1509435196.0,286047002.3,N
1509435215.8,286047002.7,N
1509435235.7,286046999.8,N
1509435255.5,286047002.2,N
1509435275.3,286047002.5,N
1509435295.2,286047002.5,N
1509435315.0,286047002.2,N
1509435315.9,286047002.2,N
1509435335.8,286047001.4,N
1509435355.6,286047002.3,N
1509435375.4,286047002.1,N
1509435395.3,286047002.1,N
1509435415.1,286047000.3,N
1509435435.9,286046999.8,N
1509435455.7,286047000.0,N
1509435475.5,286047002.6,N
1509435495.4,286047000.5,N
1509435515.2,286046999.0,N
1509435535.0,286047000.4,N
1509435536.0,286047000.4,N
1509435555.8,286047000.6,N
1509435575.6,286047000.2,N
1509435595.5,286047004.2,Y
1509435615.3,286047002.7,P
1509435635.1,286047001.7,N
1509435655.9,286047002.4,P
1509435675.7,286047002.1,Y
1509435695.6,286046998.4,P
1509435715.4,286047000.3,N
1509435735.2,286047002.8,N
1509435755.1,286047002.7,N
1509435756.0,286047002.7,N
1509435775.8,286047002.2,N
1509435795.6,286047000.4,N
1509435815.5,286047000.6,N
1509435835.3,286047001.0,N
1509435855.2,286046998.3,N
1509435875.9,286046998.3,N
1509435895.7,286047000.2,N
1509435915.6,286047002.5,N
1509435935.4,286047002.4,N
1509435955.2,286047003.8,N
1509435975.1,286047000.2,N
1509435976.0,286047000.2,N
1509435995.8,286047002.4,N
1509436015.7,286047002.0,N
1509436035.5,286047002.8,N
1509436055.3,286047001.2,N
1509436075.2,286047002.4,N
1509436095.0,286047000.2,N
1509436095.9,286047000.2,N
1509436115.7,286047002.3,N
1509436135.6,286047000.2,N
1509436155.4,286047000.9,N
1509436175.3,286046999.0,N
1509436195.1,286046999.6,N
1509436196.0,286046999.6,N
1509436215.8,286046998.9,N
1509436235.7,286046999.3,N
1509436255.5,286046999.1,N
1509436275.4,286046995.0,Y
1509436295.2,286046995.2,P
1509436315.0,286046997.7,N
1509436315.9,286046997.7,N
1509436335.8,286046999.6,N
1509436355.6,286046996.7,N
1509436375.4,286046995.2,N
1509436395.3,286046997.0,N
1509436415.1,286047001.1,N
1509436435.9,286046998.4,N
1509436455.7,286047001.2,N
1509436475.5,286046998.8,N
1509436495.4,286047001.0,N
1509436515.2,286046998.3,N
1509436535.0,286046998.6,N
1509436535.9,286046998.6,N
1509436555.8,286046999.0,N
1509436575.6,286046999.0,N
1509436595.5,286046999.8,N
1509436615.3,286047000.6,N
1509436635.1,286047001.1,N
1509436655.9,286046999.2,N
1509436675.7,286046998.5,N
1509436695.5,286046998.4,N
1509436715.4,286046996.8,N
1509436735.2,286046999.5,N
1509436755.1,286046997.6,N
1509436756.0,286046997.6,N
1509436775.8,286046999.1,N
1509436795.6,286047000.9,N
